Погода в Баянауле

Казахстан     50°47′35″N   75°42′02″E
темп.,
°C
ветер,
м/с
пор.,
м/с
влажн.,
%
обл.,
%
осадки,
мм/ч
давл.,
гПа
погр.,
м
1 марта, пн
пн100:000юз122183100 1.0 1011911
03:00+1юз121991100 0.1 1011954
06:00+1зюз91797100 0.8 1011951
09:00+1зюз81697100 0.1 1011934
12:00+1зюз714100100 0.2 1011996
15:00+1зюз71599100 0.1 10121069
18:000зюз71592100 0.1 1012934
21:00−1зюз8149481 0.3 1014522
2 марта, вт
вт200:00−5з5158791 0.7 1016492
03:00−8зюз5118291 0.0 1017245
06:00−9зюз478790 0.0 1017152
09:00−8зюз2592100 0.0 1017173
12:00−4зюз4887100 0.0 1016627
15:00−3зюз698599 0.0 1015793
18:00−7з338783 0.0 101544
21:00−11зюз468913 0.0 1017105
3 марта, ср
ср300:00−14зюз613929 0.0 1019403
03:00−15зюз7169024 0.0 1020486
06:00−16зюз7169026 0.0 1022434
09:00−16зюз6159040 0.0 1022444
12:00−12зюз7128434 0.0 1023503
15:00−10зюз71279100 0.0 1022527
18:00−10юз6137991 0.0 1022421
21:00−12юз7148274 0.0 1023344
4 марта, чт
чт400:00−11юз7148584 0.0 1023319
03:00−9юз8158696 0.0 1021374
06:00−8юз8148498 0.0 1021341
09:00−7юз91580100 0.0 1020436
12:00−5юз101578100 0.0 1019621
15:00−2юз91579100 0.0 1017788
18:00−3ююз91777100 0.0 1016519
21:00−5ююз91880100 0.0 1015385
5 марта, пт
пт500:00−5ююз61581100 0.0 1014407
03:00−4ююз51595100 0.8 1009681
06:00−2зюз7159699 1.5 1008696
09:00−3з6149696 1.1 1013697
12:00−3з10138698 1.4 1019908
15:00−5зюз9157333 0.0 1023776
18:00−7юз9177417 0.0 1024615
21:00−8юз10197230 0.0 1025449